Wetbulb
55.85 55.91 56.44 56.77 56.76 56.76 56.32 56.26 56.63 57.05 57.41 57.66 58.10 58.97 59.70 60.45 59.28 55.84 50.06 54.73 58.44 64.25 64.23 56.66 56.72 55.43 55.91 52.99 53.84 54.15 43.12 42.39 44.25 46.87 50.04 53.82 52.32 59.04 61.60 61.78 61.24 62.63 67.89 70.37 72.08
55.35 55.58 55.55 55.96 56.50 56.48 56.35 55.90 56.25 56.74 57.20 57.48 58.03 58.94 59.41 59.93 53.84 50.66 58.67 64.91 67.00 67.99 55.89 53.41 51.56 52.67 49.54 50.74 51.23 49.27 44.39 46.17 50.25 51.68 51.15 52.22 52.10 56.31 55.37 56.33 60.40 64.44 69.86 71.34 71.20
55.08 55.19 55.81 55.44 55.40 56.07 56.06 55.81 56.18 56.76 57.25 57.57 58.01 58.48 59.09 58.45 50.40 50.03 66.41 63.87 67.13 66.63 56.40 55.34 52.50 50.43 47.25 49.54 49.75 48.45 46.18 50.91 52.46 53.00 54.24 52.69 51.07 55.72 54.19 52.45 62.06 64.62 66.73 68.82 69.02
54.62 54.90 54.98 54.81 55.13 55.60 55.75 55.72 56.11 56.74 57.13 57.38 57.71 58.07 58.85 55.09 41.12 56.21 68.84 66.92 67.68 60.29 55.74 53.28 51.06 47.30 44.66 44.86 50.15 46.56 49.74 51.66 52.85 53.99 52.75 51.16 52.21 51.89 54.87 54.50 64.29 64.84 65.78 66.22 66.15
54.33 54.45 54.51 54.76 54.76 55.48 55.74 56.05 56.11 56.48 56.70 56.93 57.24 57.87 55.02 48.27 48.28 60.78 68.02 68.06 62.25 56.86 52.62 50.23 48.25 46.61 43.93 46.09 48.29 47.06 49.29 51.49 52.62 53.77 52.99 52.68 50.34 50.90 51.34 57.06 64.87 64.56 64.49 64.69 64.46
54.42 54.69 54.63 54.67 54.85 55.07 55.25 55.49 55.78 56.38 56.77 56.82 57.29 57.81 51.39 43.35 55.53 57.80 58.69 57.80 55.06 52.44 51.45 49.77 47.93 48.73 46.89 46.65 45.96 48.78 50.15 50.64 51.69 50.64 51.36 49.72 51.00 51.55 52.44 56.95 62.66 63.34 62.15 62.72 63.01
54.03 53.99 54.11 54.28 54.52 54.93 55.32 55.37 55.27 56.28 56.69 57.07 57.81 57.26 50.40 47.91 55.05 58.41 56.87 54.34 54.87 53.73 50.68 51.11 51.93 48.95 47.78 45.88 49.16 48.95 46.11 49.54 50.01 50.60 48.69 50.14 47.69 48.18 52.51 57.77 61.47 60.89 60.68 60.81 62.15
53.57 53.34 53.62 53.99 54.28 54.87 55.36 55.27 55.33 56.63 57.92 57.78 58.58 54.57 47.09 55.53 55.90 55.17 56.42 53.69 53.83 52.65 51.94 52.72 52.91 49.71 46.96 47.86 47.48 44.59 43.75 41.15 47.65 49.57 50.31 48.92 44.54 49.80 52.28 55.77 58.73 59.60 59.46 58.83 58.62
53.37 52.95 52.97 53.55 54.16 54.59 54.56 54.29 55.46 57.86 59.50 58.68 54.33 50.03 46.85 59.25 56.16 56.87 55.35 53.02 53.54 53.79 53.58 55.67 50.05 46.94 46.97 42.11 39.99 41.59 39.16 41.10 45.49 49.80 49.26 47.72 44.33 50.63 53.11 52.53 55.69 56.55 56.26 56.76 56.52
52.97 52.47 52.47 52.99 53.62 53.74 53.59 54.12 58.20 56.11 57.01 57.51 55.29 48.16 51.71 52.68 55.04 54.70 53.35 54.72 52.62 51.71 50.30 48.74 45.10 42.17 41.41 38.57 36.16 38.01 39.10 41.61 42.64 47.19 47.88 45.38 45.16 49.28 51.63 51.61 51.84 55.57 56.24 55.78 54.63
52.89 52.41 52.26 52.68 53.26 52.89 50.93 51.26 49.36 48.81 50.79 49.96 51.64 50.81 54.20 57.02 54.82 50.82 52.45 52.72 51.75 48.83 43.13 45.67 39.67 37.30 40.24 42.29 43.70 43.28 42.46 42.30 45.91 48.52 47.09 45.93 45.62 48.32 51.07 49.84 49.34 50.94 55.20 54.85 53.78
52.33 52.39 52.56 52.55 52.70 52.56 50.35 50.01 49.69 49.25 45.03 51.95 52.04 53.41 57.33 57.13 52.15 51.61 52.46 47.86 47.33 42.55 44.49 42.61 39.75 44.04 46.26 45.17 44.16 43.55 41.30 41.23 44.67 47.13 46.89 47.27 48.18 48.95 50.06 49.28 49.45 50.15 51.15 53.35 53.28
51.40 51.66 52.05 52.33 52.03 53.27 52.93 51.10 53.40 52.97 45.37 49.89 52.48 51.93 51.82 52.20 49.69 50.22 51.69 48.90 46.39 44.12 43.34 40.87 44.01 48.48 46.65 45.19 43.63 42.51 41.12 41.05 41.93 45.52 46.18 44.70 46.10 47.22 49.70 49.94 51.70 51.88 52.73 53.40 54.23
51.17 51.26 51.64 51.93 51.60 51.43 49.80 51.66 52.44 53.97 40.22 46.55 49.91 51.61 52.82 51.93 49.39 54.00 53.19 49.21 46.20 44.38 45.72 44.21 47.11 46.74 45.85 45.01 45.47 40.78 45.66 45.24 44.30 42.06 36.81 42.69 35.06 43.95 46.37 48.05 49.65 49.77 51.40 51.76 54.12
50.88 51.43 51.51 51.18 48.24 50.24 49.54 51.64 51.45 51.64 32.68 50.76 49.51 53.65 52.11 49.44 51.21 51.17 54.24 50.74 44.90 45.49 46.41 43.96 45.16 44.85 44.08 45.08 47.00 43.34 47.04 44.40 44.55 41.30 37.50 40.70 34.83 39.48 44.97 45.01 47.86 49.09 49.22 50.47 52.34
50.47 50.90 51.32 52.54 50.03 52.22 51.66 52.17 49.97 39.73 34.49 47.32 50.42 48.75 46.91 48.94 50.01 50.98 51.10 51.61 50.22 45.42 45.71 45.12 49.37 47.80 46.63 48.38 47.76 48.42 44.56 43.13 41.19 38.41 33.09 38.84 36.80 37.59 40.80 44.91 47.90 50.34 51.25 51.23 50.70
50.13 50.54 49.67 52.78 48.15 52.09 52.21 48.69 38.27 34.57 48.93 44.46 45.28 47.94 46.16 45.55 46.55 48.12 47.71 44.89 41.72 37.61 37.92 43.77 45.11 48.27 49.37 44.94 46.48 44.15 37.95 30.49 29.75 30.34 31.07 40.62 38.60 40.50 45.06 48.11 49.14 50.12 51.61 51.91 52.31
48.73 49.47 51.99 54.87 52.91 51.56 49.93 41.81 31.97 43.94 41.56 46.32 45.19 46.29 43.67 45.61 45.11 46.36 44.74 42.37 45.92 43.96 40.44 38.09 36.84 44.79 48.51 45.42 42.02 41.45 39.45 32.01 27.23 27.61 33.81 40.95 36.83 42.38 47.72 49.69 50.72 51.64 51.50 52.37 51.83
48.28 51.74 52.88 51.54 52.09 51.36 44.94 34.82 36.46 41.01 42.94 41.58 43.45 42.41 41.34 42.89 42.99 43.23 42.52 43.12 45.64 45.08 40.45 41.17 39.87 47.55 48.15 48.30 46.74 42.11 39.11 41.50 36.13 36.34 32.91 36.93 41.32 46.41 48.76 49.14 50.09 50.87 51.66 50.10 51.09
45.19 49.00 49.19 51.76 51.73 49.38 41.20 38.73 41.03 43.98 43.05 41.77 36.29 40.21 35.69 38.75 38.81 39.30 40.33 45.28 43.67 45.74 45.43 43.07 37.59 47.47 49.65 50.45 49.33 45.48 46.79 37.92 36.06 27.80 27.55 35.45 37.44 39.23 45.80 47.48 48.91 49.23 49.14 50.85 51.86
47.18 46.61 48.52 51.93 51.55 45.34 38.10 38.85 41.18 44.30 42.88 39.56 37.05 36.57 37.01 35.22 36.59 36.75 39.97 43.51 43.21 43.70 44.74 42.43 39.67 41.59 46.35 43.91 42.37 43.48 42.30 42.24 39.75 39.08 32.40 28.41 34.67 44.03 47.72 49.06 49.00 49.11 49.71 50.15 50.35
44.66 40.93 49.21 50.72 41.68 41.35 36.42 39.81 42.09 41.99 43.04 40.79 40.72 38.20 35.60 36.36 35.67 35.60 37.18 39.63 42.48 42.92 37.70 37.55 37.16 34.23 38.97 45.59 47.72 45.70 43.81 42.75 34.13 33.55 36.09 35.95 36.58 47.26 49.62 48.57 51.63 51.54 52.56 51.31 50.89
41.16 44.17 50.44 48.66 33.99 34.55 39.04 39.77 41.38 40.09 39.46 38.56 37.49 38.36 38.00 34.20 30.35 35.34 37.04 41.82 42.08 39.98 37.62 37.13 32.10 27.63 32.23 38.78 43.61 41.77 43.44 42.54 41.00 40.68 35.29 29.71 34.76 48.17 49.76 49.44 50.85 50.51 52.90 52.07 50.45
42.68 37.23 42.14 42.71 41.45 36.90 35.67 37.04 37.30 41.20 39.28 39.16 37.30 37.91 34.97 32.55 34.04 31.65 33.55 37.89 39.93 39.61 43.94 39.15 32.48 29.94 25.36 30.76 35.07 34.48 38.67 40.71 39.89 34.10 35.95 37.09 38.21 43.55 46.87 48.13 48.81 49.72 52.04 52.23 52.85
42.55 37.97 39.09 32.54 35.68 37.41 37.59 37.47 36.36 35.05 38.95 38.75 35.47 35.77 32.79 27.42 30.18 29.96 33.16 34.56 37.27 40.02 37.21 34.57 28.74 31.53 32.06 33.44 34.72 34.78 35.36 37.34 36.35 37.89 36.35 38.96 39.56 43.41 46.39 46.62 48.32 49.98 52.89 52.27 52.47
39.00 37.53 39.45 36.96 39.34 37.56 37.55 35.71 35.32 36.29 35.87 34.77 33.26 35.83 33.97 28.26 30.20 28.13 31.12 30.44 30.14 34.07 33.54 33.45 27.66 29.44 26.28 31.92 32.98 31.37 34.77 36.47 36.72 37.42 38.37 40.64 39.59 44.59 48.90 48.73 47.58 48.36 50.58 52.06 52.70
43.45 43.50 39.40 37.28 36.35 35.50 34.78 36.29 36.25 37.40 38.88 38.96 36.72 34.20 33.15 35.09 36.35 35.13 34.28 33.70 33.15 30.31 29.01 28.80 27.83 26.03 20.93 28.53 28.74 24.20 31.55 34.74 36.60 38.59 38.54 33.77 40.16 44.43 43.46 47.64 46.86 46.84 48.29 48.17 51.32
MSLP
1018.36 1017.74 1017.23 1016.69 1016.11 1015.61 1015.12 1014.67 1014.35 1013.95 1013.63 1013.35 1013.13 1012.97 1012.83 1012.66 1012.23 1011.98 1010.82 1008.59 1008.39 1007.98 1007.98 1008.19 1008.21 1008.01 1008.00 1007.92 1007.59 1007.30 1007.95 1007.40 1006.38 1004.79 1002.63 1001.37 1001.08 999.10 998.95 1000.73 1001.92 1002.20 1003.05 1004.42 1005.37
1018.37 1017.70 1017.03 1016.55 1015.89 1015.40 1014.89 1014.39 1013.96 1013.66 1013.39 1013.17 1012.91 1012.76 1012.70 1012.58 1012.09 1010.30 1008.00 1007.62 1007.37 1007.20 1008.14 1008.05 1008.01 1007.86 1008.13 1007.48 1007.36 1007.01 1006.68 1006.26 1005.33 1003.90 1002.99 1001.92 1001.39 1000.05 1000.12 1000.78 1001.56 1002.85 1003.67 1004.35 1005.11
1018.31 1017.66 1017.03 1016.31 1015.68 1015.09 1014.50 1014.09 1013.60 1013.17 1013.01 1012.89 1012.78 1012.61 1012.54 1012.46 1011.60 1007.33 1005.46 1006.22 1006.86 1006.89 1007.07 1007.27 1007.43 1007.65 1007.93 1007.38 1006.93 1006.43 1005.98 1005.60 1004.53 1003.36 1003.05 1002.39 1001.49 1001.17 999.91 1001.43 1001.30 1002.38 1003.55 1004.31 1005.05
1018.28 1017.61 1016.87 1016.19 1015.41 1014.79 1014.24 1013.64 1013.24 1012.76 1012.55 1012.51 1012.59 1012.52 1012.37 1012.20 1010.04 1005.66 1004.77 1005.06 1006.17 1006.56 1006.92 1007.14 1007.31 1007.68 1007.58 1007.30 1006.47 1006.09 1005.35 1004.80 1003.81 1002.78 1002.90 1002.24 1001.73 1001.48 1001.03 1001.03 1001.24 1002.06 1003.02 1004.14 1004.91
1018.10 1017.37 1016.54 1015.86 1015.19 1014.41 1013.81 1013.23 1012.85 1012.40 1012.12 1012.20 1012.34 1012.34 1012.32 1011.41 1008.14 1005.71 1005.53 1005.67 1006.31 1006.65 1006.67 1006.95 1007.15 1007.30 1007.02 1006.68 1006.11 1005.46 1004.89 1004.29 1003.75 1003.02 1002.49 1002.17 1001.77 1001.35 1001.45 1000.94 1001.22 1001.96 1002.90 1003.92 1004.81
1018.09 1017.27 1016.28 1015.43 1014.84 1014.12 1013.37 1012.73 1012.43 1011.95 1011.80 1011.77 1012.07 1012.20 1011.84 1009.98 1005.26 1004.26 1005.41 1005.89 1005.80 1006.22 1006.22 1006.46 1006.45 1006.30 1006.33 1006.08 1005.79 1005.24 1004.59 1003.83 1003.33 1003.22 1002.44 1002.29 1001.62 1001.46 1000.97 1001.20 1001.58 1002.12 1003.01 1003.87 1004.55
1017.93 1016.97 1016.17 1015.27 1014.44 1013.72 1012.98 1012.29 1011.86 1011.53 1011.34 1011.49 1011.60 1011.77 1010.53 1007.30 1004.93 1004.77 1005.16 1005.43 1005.61 1005.67 1005.82 1005.75 1005.66 1005.93 1005.72 1005.80 1005.02 1004.82 1004.68 1003.77 1003.21 1002.51 1002.28 1002.27 1001.81 1001.60 1000.86 1001.09 1001.81 1002.44 1003.10 1003.98 1004.69
1017.81 1016.85 1015.86 1014.91 1013.97 1013.39 1012.59 1011.76 1011.29 1011.03 1010.99 1011.15 1011.41 1011.24 1009.20 1005.04 1004.61 1005.04 1005.07 1004.85 1004.73 1004.84 1004.92 1004.59 1004.72 1005.04 1005.33 1005.22 1005.02 1004.84 1004.62 1003.85 1002.71 1002.39 1001.89 1002.16 1001.82 1001.44 1000.72 1001.88 1002.00 1002.48 1003.28 1004.02 1004.80
1017.55 1016.63 1015.57 1014.57 1013.52 1012.85 1012.14 1011.23 1010.64 1010.55 1010.64 1010.94 1011.22 1010.60 1007.59 1004.08 1004.10 1003.57 1003.58 1004.05 1004.17 1004.10 1004.19 1004.00 1004.20 1004.77 1004.96 1005.50 1005.90 1005.28 1004.75 1003.95 1002.93 1002.09 1001.90 1001.69 1001.57 1001.02 1001.08 1001.48 1002.06 1002.49 1003.21 1004.14 1004.82
1017.38 1016.25 1015.17 1014.22 1013.27 1012.55 1011.55 1010.42 1010.06 1010.24 1010.54 1010.38 1009.79 1009.70 1006.54 1003.79 1003.01 1002.92 1002.84 1003.16 1003.63 1003.75 1004.03 1004.07 1004.63 1005.19 1005.55 1006.06 1005.60 1005.42 1004.82 1003.96 1003.13 1002.35 1001.83 1001.79 1001.40 1001.30 1001.07 1001.91 1001.87 1002.41 1002.97 1003.80 1004.78
1017.29 1016.14 1014.95 1013.78 1012.70 1012.38 1011.46 1010.32 1010.35 1010.19 1009.49 1008.27 1007.40 1005.85 1003.98 1002.86 1002.36 1002.86 1002.85 1003.11 1003.45 1003.87 1004.48 1004.63 1005.23 1005.51 1005.81 1005.66 1005.35 1004.96 1004.59 1003.84 1002.69 1002.02 1002.20 1001.93 1001.51 1001.13 1000.93 1001.75 1002.22 1002.27 1002.80 1003.39 1004.19
1017.27 1015.90 1014.64 1013.36 1012.23 1011.24 1011.84 1010.58 1009.15 1008.51 1006.73 1006.03 1005.05 1004.40 1003.76 1003.11 1002.68 1002.40 1002.71 1003.33 1003.65 1004.11 1004.48 1004.98 1004.75 1004.94 1004.85 1004.67 1004.52 1004.27 1004.02 1003.31 1002.38 1001.81 1001.91 1001.68 1000.98 1000.88 1000.74 1001.12 1001.64 1002.35 1002.76 1002.94 1003.74
1017.17 1015.86 1014.57 1013.06 1011.77 1010.62 1010.39 1009.30 1008.22 1007.73 1007.38 1004.01 1002.71 1002.69 1002.31 1002.50 1001.99 1001.86 1002.41 1002.93 1003.53 1004.06 1004.35 1004.54 1004.07 1003.92 1003.87 1003.57 1003.43 1003.19 1003.19 1002.95 1002.69 1001.80 1001.79 1001.87 1001.32 1000.81 1000.36 1000.60 1000.95 1001.05 1001.57 1002.24 1002.85
1016.95 1015.80 1014.57 1013.17 1011.46 1010.79 1009.68 1008.76 1008.02 1007.77 1007.30 1003.47 1001.28 1000.56 1000.94 1001.19 1001.36 1001.17 1001.60 1002.53 1003.06 1003.44 1003.94 1003.76 1003.31 1002.93 1002.75 1002.59 1002.39 1002.23 1002.15 1002.36 1002.37 1002.54 1002.55 1001.80 1001.93 1001.06 1000.24 1000.13 1000.28 1000.73 1001.16 1001.56 1002.19
1016.93 1015.64 1014.55 1014.28 1013.12 1011.15 1009.80 1008.73 1008.17 1008.07 1006.74 1001.71 1000.74 999.97 1000.25 1001.28 1000.72 1000.84 1000.94 1001.80 1002.52 1003.11 1003.74 1002.81 1002.87 1002.34 1001.79 1001.44 1001.36 1001.38 1001.76 1002.30 1002.53 1002.84 1002.99 1002.44 1002.91 1001.27 1000.25 1000.25 999.88 999.91 1000.57 1000.92 1001.29
1016.53 1015.20 1014.84 1012.67 1012.58 1010.57 1009.23 1008.69 1008.41 1008.62 1005.49 1001.88 1001.02 1000.70 1000.96 1001.02 1000.98 1000.76 1001.05 1001.61 1002.21 1002.94 1003.14 1002.81 1002.36 1001.83 1001.18 1000.79 1000.66 1000.98 1001.73 1002.62 1003.14 1003.81 1004.13 1003.09 1002.79 1001.28 1000.81 999.48 999.38 999.19 999.34 999.95 1000.38
1015.96 1014.44 1014.41 1012.96 1011.65 1009.89 1009.43 1009.05 1009.18 1008.04 1004.74 1004.32 1003.62 1002.77 1002.10 1002.08 1001.72 1001.55 1001.82 1002.03 1002.73 1003.51 1003.47 1003.27 1002.18 1001.22 1001.00 1000.93 1000.83 1000.97 1002.32 1004.13 1005.01 1004.93 1004.15 1003.12 1002.75 1000.63 999.91 999.09 998.57 998.85 998.57 998.75 999.50
1015.62 1013.63 1012.44 1011.54 1010.68 1010.06 1009.83 1009.99 1009.52 1007.64 1007.64 1006.78 1006.13 1004.83 1004.44 1003.97 1003.62 1003.33 1002.71 1003.01 1002.82 1003.14 1003.59 1003.58 1002.67 1001.58 1000.51 1000.74 1001.14 1001.23 1002.59 1004.46 1005.37 1005.61 1004.49 1003.38 1002.38 999.34 999.53 998.50 998.09 998.22 997.78 997.56 998.62
1015.38 1013.26 1012.24 1011.03 1010.45 1010.25 1010.66 1010.43 1010.18 1009.39 1009.06 1008.52 1007.53 1006.60 1006.40 1006.20 1006.51 1005.87 1005.75 1004.93 1004.85 1005.94 1006.30 1004.71 1002.59 1001.57 1000.76 1000.29 1000.68 1001.17 1002.21 1003.19 1004.50 1005.25 1005.30 1003.99 1002.13 999.97 998.86 998.35 997.75 998.52 998.34 998.93 999.10
1016.53 1014.38 1012.33 1010.91 1010.29 1010.53 1011.16 1010.65 1010.54 1010.44 1009.91 1009.98 1009.84 1009.65 1009.48 1009.11 1008.57 1008.40 1007.69 1006.73 1007.35 1007.46 1007.64 1006.90 1004.68 1002.78 1001.43 1000.88 1000.41 1000.73 1001.65 1003.10 1004.32 1005.75 1005.68 1004.24 1002.72 1000.81 999.31 998.08 997.96 998.39 998.74 999.27 999.77
1016.26 1014.52 1012.18 1010.72 1009.85 1010.93 1011.77 1011.75 1011.63 1011.20 1011.43 1011.65 1011.94 1011.88 1012.02 1012.14 1011.72 1010.90 1009.77 1009.55 1009.37 1008.90 1008.79 1008.67 1007.68 1005.49 1004.00 1002.48 1002.16 1001.66 1002.49 1002.57 1004.14 1005.08 1005.46 1004.89 1002.95 1001.01 999.67 998.97 999.02 998.76 999.31 999.90 1000.02
1018.12 1015.29 1012.56 1011.23 1011.96 1012.46 1013.30 1013.47 1012.97 1012.30 1012.57 1012.94 1013.09 1013.60 1014.00 1013.92 1013.24 1012.93 1012.08 1012.10 1012.45 1011.90 1011.91 1012.41 1010.08 1008.26 1006.29 1004.12 1003.89 1003.73 1004.15 1004.00 1005.30 1005.92 1005.33 1004.75 1003.10 1001.30 1000.43 999.36 999.74 999.74 1000.24 1000.19 1000.57
1019.73 1016.25 1013.57 1013.29 1014.40 1015.09 1014.79 1014.32 1013.65 1013.34 1013.64 1014.06 1014.46 1014.92 1015.13 1015.23 1015.04 1014.23 1013.69 1013.62 1013.90 1014.00 1014.55 1014.83 1012.84 1011.17 1008.41 1006.52 1004.91 1005.19 1005.69 1006.46 1007.16 1007.89 1007.12 1005.60 1003.39 1001.72 1001.67 1000.90 1000.45 1000.62 1001.70 1001.36 1001.51
1020.68 1017.88 1016.33 1016.11 1016.55 1016.62 1016.14 1015.33 1014.60 1014.21 1014.56 1015.10 1015.52 1015.68 1015.86 1016.09 1016.15 1015.55 1015.10 1015.11 1015.29 1015.63 1015.82 1016.02 1015.70 1014.95 1013.83 1011.93 1010.81 1008.72 1007.73 1007.82 1007.94 1008.96 1008.24 1006.99 1005.20 1003.69 1004.15 1003.44 1002.66 1002.15 1002.18 1002.57 1002.86
1020.89 1020.09 1019.95 1018.70 1018.10 1017.58 1016.87 1016.16 1015.45 1015.40 1015.68 1015.85 1016.13 1016.31 1016.59 1016.90 1016.63 1016.26 1016.01 1015.85 1016.04 1016.33 1016.54 1017.11 1017.24 1016.44 1015.21 1014.07 1012.47 1010.72 1009.33 1008.90 1008.60 1008.22 1008.34 1006.85 1006.39 1005.38 1006.23 1005.38 1005.13 1004.15 1003.64 1003.06 1003.36
1022.12 1021.92 1021.24 1020.35 1018.93 1018.11 1017.17 1016.68 1016.40 1016.27 1016.59 1016.42 1016.56 1016.67 1016.85 1017.06 1016.87 1016.60 1016.52 1016.56 1016.67 1016.67 1017.06 1017.31 1017.26 1017.33 1016.28 1015.52 1014.04 1012.07 1010.42 1009.51 1009.20 1008.61 1008.22 1007.66 1006.60 1007.01 1006.38 1006.23 1005.97 1005.65 1005.47 1005.29 1004.69
1023.19 1022.81 1022.09 1020.98 1019.88 1018.84 1018.07 1017.69 1017.22 1016.86 1016.61 1016.55 1016.77 1016.94 1016.88 1016.44 1016.23 1016.35 1016.52 1016.51 1016.55 1016.53 1016.79 1016.99 1017.30 1017.34 1016.28 1016.38 1015.26 1013.28 1010.96 1010.03 1009.26 1008.92 1008.79 1008.39 1006.87 1006.59 1007.43 1007.34 1007.61 1007.00 1006.27 1006.16 1005.94
Wind_Speed
23 22 22 21 20 19 19 19 18 17 16 14 13 12 10 11 13 5 10 13 9 15 3 6 8 9 8 8 8 5 2 7 10 14 19 15 14 2 9 24 6 6 17 22 17
23 23 23 22 21 20 20 19 18 17 16 14 12 10 9 8 5 13 15 16 14 12 7 8 9 9 5 6 6 7 5 14 10 18 17 16 18 5 9 11 18 18 18 21 20
24 24 23 24 23 21 20 20 18 16 15 13 12 9 7 5 6 12 8 29 14 11 12 8 9 8 9 8 10 6 13 11 13 20 15 21 14 9 17 7 21 28 23 20 12
25 25 25 25 24 22 21 20 18 15 14 12 10 8 4 4 6 4 9 21 16 10 7 8 8 8 7 10 12 13 12 15 18 23 17 18 10 10 3 10 23 22 19 14 10
26 26 26 24 24 22 21 19 19 16 13 10 8 6 3 4 15 4 6 10 8 6 10 9 9 8 8 7 10 10 13 15 14 24 20 17 6 9 7 16 23 24 20 15 10
26 26 26 25 24 23 21 19 17 14 11 8 6 3 3 8 14 15 11 7 9 9 9 9 9 10 9 10 10 8 13 16 16 13 16 10 6 3 14 8 20 22 16 13 12
26 27 27 27 25 23 21 19 17 14 9 6 5 5 6 20 3 7 12 10 10 10 11 11 15 9 6 9 11 10 9 15 13 15 12 5 9 8 13 4 23 18 14 10 10
26 27 28 28 27 24 22 20 18 13 6 5 6 4 9 10 11 18 15 11 12 12 14 16 14 12 7 6 7 7 6 8 11 7 8 8 12 8 12 13 19 19 14 10 9
27 28 29 28 28 25 23 23 19 9 4 9 4 3 11 9 5 10 11 11 12 15 13 14 2 2 4 4 6 6 9 9 9 9 6 9 7 10 2 8 16 17 12 10 8
28 29 30 29 27 26 25 17 2 3 4 8 8 4 8 8 8 11 7 7 8 7 6 4 2 3 5 2 13 9 6 8 9 7 9 10 9 8 7 7 12 16 16 13 11
30 30 31 30 28 21 14 5 4 1 5 8 7 7 17 9 5 5 8 7 8 5 8 8 4 8 11 12 12 8 12 11 11 15 13 11 9 16 16 7 8 10 15 14 13
31 32 32 31 28 25 4 4 8 7 14 14 22 26 23 21 20 9 7 8 8 9 6 7 12 11 14 16 17 16 14 15 11 9 14 18 25 11 16 10 12 10 9 14 10
31 33 33 32 31 9 4 9 9 9 6 14 19 17 21 20 22 8 11 8 10 11 12 11 12 16 19 17 17 15 16 11 14 17 8 6 20 20 17 8 19 15 16 13 16
32 32 32 32 5 8 5 12 12 5 4 9 6 9 8 3 5 9 9 11 9 15 13 14 13 18 18 20 15 13 10 13 16 6 7 5 7 6 8 8 5 8 15 14 18
33 32 30 12 8 6 9 11 10 5 5 5 6 2 4 8 5 9 12 8 14 14 11 18 15 17 17 15 10 9 8 7 6 6 4 15 1 9 8 8 13 12 10 14 16
36 33 25 1 3 7 11 12 4 1 7 4 6 6 6 9 11 6 7 7 7 9 12 16 17 17 16 16 12 7 5 8 6 3 6 15 7 9 6 12 10 18 17 14 14
38 36 17 6 5 10 9 6 1 4 14 13 13 15 10 9 14 11 6 9 8 4 6 12 18 19 16 13 11 4 3 3 5 3 10 8 9 14 8 10 10 13 21 19 18
39 34 6 6 7 8 5 3 3 10 16 16 17 16 7 11 13 21 13 10 9 11 11 10 12 16 20 15 9 7 9 8 8 4 9 6 7 17 14 20 18 4 10 20 18
33 6 4 3 8 4 4 2 5 10 14 16 15 7 9 22 13 13 17 18 13 24 12 6 21 16 17 17 13 9 11 9 5 5 3 5 9 17 22 12 22 7 11 10 11
9 5 4 9 8 2 1 4 6 13 11 13 11 10 14 15 14 15 10 14 14 17 14 12 8 8 14 10 14 7 10 3 1 8 10 8 9 10 14 13 9 9 10 9 10
2 5 7 13 4 2 1 5 8 13 15 10 11 9 13 14 16 13 7 10 26 20 15 9 5 7 8 4 3 3 13 6 6 5 7 3 7 1 4 4 6 7 9 10 10
8 5 10 13 6 5 7 11 10 14 12 9 9 11 11 14 5 8 9 14 24 22 15 16 5 5 10 21 15 12 4 8 4 8 5 8 12 8 4 1 16 9 8 8 8
8 5 7 9 6 6 9 13 12 12 13 12 10 9 10 8 7 13 14 17 21 17 12 13 7 7 11 7 8 4 4 7 4 8 10 4 8 2 6 11 9 10 20 5 7
4 5 6 4 5 5 6 7 7 12 8 10 8 7 7 7 9 10 15 13 19 17 16 10 5 6 7 15 15 16 18 9 4 4 4 9 11 17 9 9 10 14 9 14 16
4 4 3 6 7 10 7 8 7 7 8 7 6 9 8 6 9 9 14 13 14 10 5 4 5 11 17 20 20 20 21 13 10 5 6 13 14 15 17 7 14 10 8 10 13
4 5 5 12 9 11 8 5 8 8 7 7 4 9 6 6 7 8 10 8 6 8 10 4 7 12 19 19 18 23 20 15 12 12 14 8 17 1 2 17 21 16 10 8 11
6 5 5 6 10 10 7 9 10 8 6 11 10 7 10 11 5 6 6 7 9 9 10 10 9 11 18 16 18 14 14 12 12 8 11 10 14 5 6 5 3 11 9 7 3
Wind_Direction
350 346 342 337 334 330 328 326 320 314 309 306 305 304 308 312 301 215 237 235 200 230 74 264 218 234 259 258 256 232 247 264 264 275 281 312 327 272 98 121 118 159 141 148 156
348 344 340 335 333 328 325 324 319 313 307 303 300 303 310 324 265 255 239 228 258 228 193 233 248 211 236 247 240 193 201 240 242 268 284 302 328 182 103 114 113 119 132 143 156
347 342 338 334 332 326 324 322 317 311 305 301 299 301 310 309 284 248 229 218 203 180 194 235 237 237 219 235 242 234 238 260 269 276 298 302 313 322 127 113 127 134 143 154 161
345 341 336 334 330 326 323 320 315 309 302 298 296 297 308 247 243 340 329 175 177 185 206 236 262 271 237 229 241 249 246 246 263 272 284 287 302 320 262 163 137 138 147 152 158
341 338 334 331 328 324 321 319 312 307 296 290 287 283 253 221 247 209 100 126 149 199 210 219 233 249 242 243 245 234 245 250 250 277 271 280 284 282 309 160 148 147 151 157 166
337 334 332 330 327 323 321 318 310 302 288 274 265 248 236 253 251 206 168 156 190 195 215 218 226 233 262 240 244 249 247 255 251 224 263 278 268 335 286 199 145 147 154 160 161
337 334 331 327 327 324 320 315 311 303 283 250 212 232 259 239 234 159 174 179 216 204 217 224 236 241 243 259 260 259 275 257 252 241 248 252 285 266 270 125 145 146 151 155 169
337 333 331 328 326 323 319 313 303 300 268 199 187 235 254 261 236 249 230 200 203 224 214 228 231 229 231 280 314 289 292 257 257 254 235 165 249 259 277 162 150 152 159 160 173
338 332 330 328 326 324 318 308 290 279 182 154 169 214 267 269 204 237 228 210 209 223 228 241 323 263 292 287 314 268 243 266 272 257 241 180 229 258 227 159 157 156 159 157 167
336 334 329 327 326 325 321 293 98 135 191 187 262 251 255 243 239 225 241 219 225 206 256 237 75 296 311 206 228 244 260 247 251 261 259 252 233 246 223 213 168 163 166 172 168
336 334 327 328 323 325 340 346 358 355 248 220 201 229 294 241 101 180 228 223 233 230 201 237 170 220 237 246 247 248 235 254 225 231 223 264 244 217 236 160 241 169 173 175 173
335 333 330 327 322 318 257 315 341 249 292 241 246 252 252 267 282 197 198 210 208 239 237 234 231 223 233 243 239 246 254 265 284 268 216 224 232 239 207 216 183 207 187 177 168
335 333 331 326 318 312 213 1 318 349 285 285 239 235 235 230 249 223 185 228 217 220 238 229 233 232 233 247 249 239 230 248 248 274 267 224 241 241 206 210 221 197 195 189 178
334 333 331 330 346 331 354 337 327 15 304 274 198 206 226 124 287 228 226 188 231 234 229 246 252 253 250 239 233 253 257 245 239 247 243 153 262 245 188 196 225 199 203 191 191
334 331 331 331 301 317 328 321 313 46 319 181 118 80 153 161 251 202 209 221 217 231 224 253 253 254 261 262 245 240 275 270 267 247 297 288 91 257 178 208 228 247 195 199 192
333 327 335 15 208 267 324 311 348 303 248 221 139 192 203 209 234 258 152 202 252 224 254 266 277 266 271 279 253 242 250 294 292 209 250 246 180 253 229 207 218 229 237 201 193
331 321 322 282 255 325 326 324 14 228 338 358 356 348 351 340 330 319 210 193 199 244 268 270 264 275 275 287 291 182 149 310 319 291 223 234 251 240 258 237 208 220 233 215 187
329 315 253 238 302 336 333 351 253 306 26 346 343 321 315 319 333 337 310 295 216 207 227 246 270 241 260 253 230 237 173 176 215 216 256 275 257 258 237 261 266 57 253 200 177
325 317 269 293 343 344 20 304 15 16 355 346 329 337 6 348 357 351 346 357 42 44 360 307 265 262 254 252 242 244 246 209 179 267 300 248 278 264 253 250 243 145 95 93 96
320 297 326 331 322 360 3 250 65 360 10 3 15 6 344 345 346 356 324 20 5 17 2 338 303 300 301 308 269 186 234 231 280 197 245 259 267 265 312 204 152 126 122 107 104
300 315 344 343 347 55 294 43 18 12 34 19 358 333 3 3 344 343 341 357 19 356 347 16 341 323 327 248 302 266 271 210 146 175 191 225 263 122 341 57 359 143 128 122 114
329 336 349 348 41 359 27 3 321 31 40 12 25 10 13 333 316 324 322 2 22 8 5 8 280 272 266 294 303 304 284 350 208 256 205 190 250 277 346 144 231 166 100 128 140
320 280 8 1 43 5 354 341 1 23 20 22 8 13 352 345 335 355 348 336 7 9 19 354 331 329 331 334 327 301 49 29 124 15 296 170 258 161 356 6 59 57 125 130 109
303 329 355 344 21 14 341 324 321 34 23 14 358 343 352 352 344 322 332 352 349 344 13 6 313 327 303 316 322 312 318 345 123 137 292 269 316 312 40 10 6 27 29 65 38
350 10 28 322 330 314 298 296 349 1 14 4 349 344 360 339 319 319 329 332 329 324 10 79 287 317 324 323 318 305 305 315 301 250 165 275 292 299 347 26 1 38 13 46 55
19 352 342 296 307 293 295 31 2 346 342 306 304 333 323 295 280 311 326 324 311 315 309 282 258 301 300 310 308 306 304 282 283 293 297 231 270 338 320 7 351 354 358 41 56
353 335 299 296 304 314 2 352 325 301 289 343 340 318 294 285 324 318 290 280 271 259 264 270 267 274 275 291 306 302 281 301 296 290 303 281 276 284 317 117 246 315 333 6 64